Time,TemperatureF,DewpointF,PressureIn,WindDirection,WindDirectionDegrees,WindSpeedMPH,WindSpeedGustMPH,Humidity,HourlyPrecipIn,Conditions,Clouds,dailyrainin,SoftwareType,DateUTC
2013-06-28 00:00:00,68.1,67.5,29.77,NNW,346,0.0,5.0,98,0.00,,,0.32,Wunderground v.1.15,2013-06-28 04:00:00,
2013-06-28 00:05:00,68.1,67.5,29.77,NNW,346,0.0,5.0,98,0.00,,,0.32,Wunderground v.1.15,2013-06-28 04:05:00,
2013-06-28 00:14:00,68.0,67.4,29.77,NNW,346,0.0,1.0,98,0.00,,,0.32,Wunderground v.1.15,2013-06-28 04:14:00,
2013-06-28 00:20:00,68.1,67.5,29.77,NNW,346,0.0,1.0,98,0.00,,,0.32,Wunderground v.1.15,2013-06-28 04:20:00,
2013-06-28 00:29:00,68.1,67.5,29.77,NNW,346,0.0,1.0,98,0.00,,,0.32,Wunderground v.1.15,2013-06-28 04:29:00,
2013-06-28 00:35:00,68.1,67.5,29.77,NNW,346,0.0,4.0,98,0.00,,,0.32,Wunderground v.1.15,2013-06-28 04:35:00,
2013-06-28 00:40:00,68.2,67.9,29.77,NNW,346,0.0,1.0,99,0.00,,,0.32,Wunderground v.1.15,2013-06-28 04:40:00,
2013-06-28 00:49:00,68.2,67.9,29.76,NNW,346,0.0,1.0,99,0.00,,,0.32,Wunderground v.1.15,2013-06-28 04:49:00,
2013-06-28 00:55:00,68.1,67.5,29.76,NNW,346,0.0,1.0,98,0.00,,,0.32,Wunderground v.1.15,2013-06-28 04:55:00,
2013-06-28 01:00:00,68.1,67.5,29.76,NNW,346,0.0,1.0,98,0.00,,,0.32,Wunderground v.1.15,2013-06-28 05:00:00,
2013-06-28 01:05:00,68.0,67.4,29.76,North,355,0.0,3.0,98,0.00,,,0.32,Wunderground v.1.15,2013-06-28 05:05:00,
2013-06-28 01:10:00,68.0,67.4,29.75,North,355,1.0,1.0,98,0.00,,,0.32,Wunderground v.1.15,2013-06-28 05:10:00,
2013-06-28 01:20:00,67.9,67.3,29.75,North,355,0.0,4.0,98,0.00,,,0.32,Wunderground v.1.15,2013-06-28 05:20:00,
2013-06-28 01:30:00,67.7,67.1,29.75,North,355,0.0,4.0,98,0.00,,,0.32,Wunderground v.1.15,2013-06-28 05:30:00,
2013-06-28 01:40:00,67.7,67.1,29.75,NNW,329,0.0,4.0,98,0.00,,,0.32,Wunderground v.1.15,2013-06-28 05:40:00,
2013-06-28 01:50:00,67.6,67.0,29.74,NNW,331,0.0,4.0,98,0.00,,,0.00,Wunderground v.1.15,2013-06-28 05:50:00,
2013-06-28 02:00:00,67.5,67.2,29.75,NNW,331,0.0,4.0,99,0.00,,,0.00,Wunderground v.1.15,2013-06-28 06:00:00,
2013-06-28 02:05:00,67.5,67.2,29.74,NNW,331,0.0,4.0,99,0.00,,,0.00,Wunderground v.1.15,2013-06-28 06:05:00,
2013-06-28 02:14:00,67.2,66.6,29.74,NNW,331,0.0,2.0,98,0.00,,,0.00,Wunderground v.1.15,2013-06-28 06:14:00,
2013-06-28 02:19:00,67.1,66.8,29.73,NNW,331,0.0,2.0,99,0.00,,,0.00,Wunderground v.1.15,2013-06-28 06:19:00,
2013-06-28 02:25:00,67.1,66.8,29.74,NNW,331,0.0,2.0,99,0.00,,,0.00,Wunderground v.1.15,2013-06-28 06:25:00,
2013-06-28 02:34:00,67.2,66.9,29.74,NNW,331,0.0,2.0,99,0.00,,,0.00,Wunderground v.1.15,2013-06-28 06:34:00,
2013-06-28 02:39:00,67.2,66.9,29.74,NNW,331,0.0,2.0,99,0.00,,,0.00,Wunderground v.1.15,2013-06-28 06:39:00,
2013-06-28 02:45:00,67.2,66.9,29.74,NNW,331,0.0,2.0,99,0.00,,,0.00,Wunderground v.1.15,2013-06-28 06:45:00,
2013-06-28 02:55:00,67.2,66.9,29.74,NNW,331,0.0,2.0,99,0.00,,,0.00,Wunderground v.1.15,2013-06-28 06:55:00,
2013-06-28 03:05:00,67.0,66.7,29.74,NNW,331,0.0,2.0,99,0.00,,,0.00,Wunderground v.1.15,2013-06-28 07:05:00,
2013-06-28 03:15:00,66.9,66.6,29.74,NNW,331,0.0,0.0,99,0.00,,,0.00,Wunderground v.1.15,2013-06-28 07:15:00,
2013-06-28 03:25:00,66.9,66.6,29.73,NNW,331,0.0,0.0,99,0.00,,,0.00,Wunderground v.1.15,2013-06-28 07:25:00,
2013-06-28 03:34:00,66.9,66.6,29.74,NNW,331,0.0,0.0,99,0.00,,,0.00,Wunderground v.1.15,2013-06-28 07:34:00,
2013-06-28 03:44:00,66.9,66.6,29.74,NNW,331,0.0,0.0,99,0.00,,,0.00,Wunderground v.1.15,2013-06-28 07:44:00,
2013-06-28 03:50:00,66.9,66.6,29.74,NNW,331,0.0,0.0,99,0.00,,,0.00,Wunderground v.1.15,2013-06-28 07:50:00,
2013-06-28 04:00:00,66.8,66.5,29.74,NNW,331,0.0,0.0,99,0.00,,,0.00,Wunderground v.1.15,2013-06-28 08:00:00,
2013-06-28 04:05:00,66.8,66.5,29.74,NNW,331,0.0,0.0,99,0.00,,,0.00,Wunderground v.1.15,2013-06-28 08:05:00,
2013-06-28 04:14:00,66.8,66.5,29.74,NNW,331,0.0,0.0,99,0.00,,,0.00,Wunderground v.1.15,2013-06-28 08:14:00,
2013-06-28 04:19:00,66.8,66.5,29.74,NNW,331,0.0,0.0,99,0.00,,,0.00,Wunderground v.1.15,2013-06-28 08:19:00,
2013-06-28 04:29:00,66.9,66.6,29.74,NNW,331,0.0,0.0,99,0.00,,,0.00,Wunderground v.1.15,2013-06-28 08:29:00,
2013-06-28 04:35:00,66.9,66.6,29.74,NNW,331,0.0,0.0,99,0.00,,,0.00,Wunderground v.1.15,2013-06-28 08:35:00,
2013-06-28 04:45:00,66.8,66.5,29.74,NNW,331,0.0,0.0,99,0.00,,,0.00,Wunderground v.1.15,2013-06-28 08:45:00,
2013-06-28 04:54:00,66.8,66.5,29.74,NNW,331,0.0,0.0,99,0.00,,,0.00,Wunderground v.1.15,2013-06-28 08:54:00,
2013-06-28 05:00:00,66.9,66.9,29.73,NNW,331,0.0,0.0,100,0.00,,,0.00,Wunderground v.1.15,2013-06-28 09:00:00,
2013-06-28 05:09:00,67.0,67.0,29.74,NNW,331,0.0,1.0,100,0.00,,,0.00,Wunderground v.1.15,2013-06-28 09:09:00,
2013-06-28 05:20:00,66.9,66.9,29.74,NNW,331,0.0,1.0,100,0.00,,,0.00,Wunderground v.1.15,2013-06-28 09:20:00,
2013-06-28 05:29:00,66.7,66.4,29.74,NNW,331,0.0,1.0,99,0.00,,,0.00,Wunderground v.1.15,2013-06-28 09:29:00,
2013-06-28 05:39:00,66.6,66.3,29.74,NNW,331,0.0,1.0,99,0.00,,,0.00,Wunderground v.1.15,2013-06-28 09:39:00,
2013-06-28 05:44:00,66.6,66.3,29.74,NNW,331,0.0,1.0,99,0.00,,,0.00,Wunderground v.1.15,2013-06-28 09:44:00,
2013-06-28 05:54:00,66.7,66.4,29.74,NNW,331,0.0,1.0,99,0.00,,,0.00,Wunderground v.1.15,2013-06-28 09:54:00,
2013-06-28 06:05:00,66.7,66.4,29.74,NNW,331,0.0,1.0,99,0.00,,,0.00,Wunderground v.1.15,2013-06-28 10:05:00,
2013-06-28 06:14:00,66.7,66.4,29.74,NNW,331,0.0,0.0,99,0.00,,,0.00,Wunderground v.1.15,2013-06-28 10:14:00,
2013-06-28 06:19:00,66.7,66.4,29.74,NNW,331,0.0,0.0,99,0.00,,,0.00,Wunderground v.1.15,2013-06-28 10:19:00,
2013-06-28 06:29:00,66.7,66.4,29.74,NNW,331,0.0,0.0,99,0.00,,,0.00,Wunderground v.1.15,2013-06-28 10:29:00,
2013-06-28 06:39:00,66.8,66.8,29.74,NNW,331,0.0,0.0,100,0.00,,,0.00,Wunderground v.1.15,2013-06-28 10:39:00,
2013-06-28 06:44:00,66.8,66.8,29.74,NNW,331,0.0,0.0,100,0.00,,,0.00,Wunderground v.1.15,2013-06-28 10:44:00,
2013-06-28 06:54:00,66.7,66.4,29.74,NNW,331,0.0,0.0,99,0.00,,,0.00,Wunderground v.1.15,2013-06-28 10:54:00,
2013-06-28 07:05:00,66.8,66.5,29.74,NNW,331,0.0,2.0,99,0.00,,,0.00,Wunderground v.1.15,2013-06-28 11:05:00,
2013-06-28 07:14:00,66.8,66.8,29.74,NNW,331,0.0,2.0,100,0.00,,,0.00,Wunderground v.1.15,2013-06-28 11:14:00,
2013-06-28 07:24:00,66.9,66.9,29.74,NNW,331,0.0,2.0,100,0.00,,,0.00,Wunderground v.1.15,2013-06-28 11:24:00,
2013-06-28 07:29:00,66.8,66.8,29.74,NNW,331,0.0,2.0,100,0.00,,,0.00,Wunderground v.1.15,2013-06-28 11:29:00,
2013-06-28 07:34:00,66.9,66.9,29.74,NNW,331,0.0,2.0,100,0.00,,,0.00,Wunderground v.1.15,2013-06-28 11:34:00,
2013-06-28 07:44:00,67.0,67.0,29.74,NNW,331,0.0,2.0,100,0.00,,,0.00,Wunderground v.1.15,2013-06-28 11:44:00,
2013-06-28 07:49:00,67.0,67.0,29.73,NNW,331,0.0,2.0,100,0.00,,,0.00,Wunderground v.1.15,2013-06-28 11:49:00,
2013-06-28 07:59:00,67.1,67.1,29.73,NNW,331,0.0,2.0,100,0.00,,,0.00,Wunderground v.1.15,2013-06-28 11:59:00,
2013-06-28 08:04:00,67.2,67.2,29.73,NNW,331,0.0,2.0,100,0.00,,,0.00,Wunderground v.1.15,2013-06-28 12:04:00,
2013-06-28 08:14:00,67.3,67.3,29.73,NNW,331,0.0,0.0,100,0.00,,,0.00,Wunderground v.1.15,2013-06-28 12:14:00,
2013-06-28 08:19:00,67.4,67.4,29.73,NNW,331,0.0,0.0,100,0.00,,,0.00,Wunderground v.1.15,2013-06-28 12:19:00,
2013-06-28 08:29:00,67.6,67.6,29.72,NNW,331,0.0,0.0,100,0.00,,,0.00,Wunderground v.1.15,2013-06-28 12:29:00,
2013-06-28 08:39:00,67.7,67.7,29.73,NNW,331,0.0,0.0,100,0.00,,,0.00,Wunderground v.1.15,2013-06-28 12:39:00,
2013-06-28 08:49:00,68.0,67.7,29.73,NNW,331,0.0,0.0,99,0.00,,,0.00,Wunderground v.1.15,2013-06-28 12:49:00,
2013-06-28 08:54:00,68.1,68.1,29.73,NNW,331,1.0,1.0,100,0.00,,,0.00,Wunderground v.1.15,2013-06-28 12:54:00,
2013-06-28 09:05:00,68.1,67.8,29.73,NNW,335,2.0,4.0,99,0.00,,,0.00,Wunderground v.1.15,2013-06-28 13:05:00,
2013-06-28 09:14:00,68.4,67.8,29.73,NNW,335,0.0,4.0,98,0.00,,,0.00,Wunderground v.1.15,2013-06-28 13:14:00,
2013-06-28 09:24:00,68.9,67.7,29.73,NNW,335,0.0,4.0,96,0.00,,,0.00,Wunderground v.1.15,2013-06-28 13:24:00,
2013-06-28 09:34:00,69.4,68.5,29.72,NNW,335,0.0,4.0,97,0.00,,,0.00,Wunderground v.1.15,2013-06-28 13:34:00,
2013-06-28 09:44:00,69.2,67.4,29.72,NNW,335,0.0,4.0,94,0.00,,,0.00,Wunderground v.1.15,2013-06-28 13:44:00,
2013-06-28 09:49:00,69.3,67.5,29.72,NNW,335,0.0,4.0,94,0.00,,,0.00,Wunderground v.1.15,2013-06-28 13:49:00,
2013-06-28 09:59:00,69.2,67.7,29.72,NNW,335,0.0,4.0,95,0.00,,,0.00,Wunderground v.1.15,2013-06-28 13:59:00,
2013-06-28 10:04:00,69.3,67.8,29.71,NNW,335,0.0,4.0,95,0.00,,,0.00,Wunderground v.1.15,2013-06-28 14:04:00,
2013-06-28 10:14:00,69.9,68.1,29.71,SW,234,0.0,2.0,94,0.00,,,0.00,Wunderground v.1.15,2013-06-28 14:14:00,
2013-06-28 10:19:00,70.0,68.2,29.71,SW,236,0.0,2.0,94,0.00,,,0.00,Wunderground v.1.15,2013-06-28 14:19:00,
2013-06-28 10:24:00,70.2,68.4,29.71,SW,236,0.0,2.0,94,0.00,,,0.00,Wunderground v.1.15,2013-06-28 14:24:00,
2013-06-28 10:29:00,70.4,68.6,29.71,SW,236,0.0,2.0,94,0.00,,,0.00,Wunderground v.1.15,2013-06-28 14:29:00,
2013-06-28 10:39:00,70.6,68.5,29.71,WSW,256,0.0,2.0,93,0.00,,,0.00,Wunderground v.1.15,2013-06-28 14:39:00,
2013-06-28 10:49:00,71.1,68.7,29.71,NNW,341,0.0,2.0,92,0.00,,,0.00,Wunderground v.1.15,2013-06-28 14:49:00,
2013-06-28 10:59:00,72.4,69.0,29.70,NNW,341,0.0,2.0,89,0.00,,,0.00,Wunderground v.1.15,2013-06-28 14:59:00,
2013-06-28 11:05:00,73.3,69.2,29.71,NW,323,0.0,2.0,87,0.00,,,0.00,Wunderground v.1.15,2013-06-28 15:05:00,
2013-06-28 11:14:00,75.4,71.9,29.70,NW,313,0.0,2.0,89,0.00,,,0.00,Wunderground v.1.15,2013-06-28 15:14:00,
2013-06-28 11:24:00,76.2,72.0,29.70,NNW,345,0.0,4.0,87,0.00,,,0.00,Wunderground v.1.15,2013-06-28 15:24:00,
2013-06-28 11:29:00,76.8,72.6,29.70,NNW,345,0.0,2.0,87,0.00,,,0.00,Wunderground v.1.15,2013-06-28 15:29:00,
2013-06-28 11:39:00,77.4,71.8,29.70,NNW,345,1.0,1.0,83,0.00,,,0.00,Wunderground v.1.15,2013-06-28 15:39:00,
2013-06-28 11:49:00,77.4,73.6,29.70,North,351,1.0,1.0,88,0.00,,,0.00,Wunderground v.1.15,2013-06-28 15:49:00,
2013-06-28 11:54:00,78.4,74.2,29.69,North,351,0.0,2.0,87,0.00,,,0.00,Wunderground v.1.15,2013-06-28 15:54:00,
2013-06-28 12:05:00,79.9,72.8,29.69,NW,317,0.0,6.0,79,0.00,,,0.00,Wunderground v.1.15,2013-06-28 16:05:00,
2013-06-28 12:14:00,78.7,70.5,29.69,NNE,28,0.0,6.0,76,0.00,,,0.00,Wunderground v.1.15,2013-06-28 16:14:00,
2013-06-28 12:19:00,78.7,71.6,29.69,North,9,0.0,6.0,79,0.00,,,0.00,Wunderground v.1.15,2013-06-28 16:19:00,
2013-06-28 12:29:00,79.1,72.4,29.69,NNW,344,0.0,6.0,80,0.00,,,0.00,Wunderground v.1.15,2013-06-28 16:29:00,
2013-06-28 12:39:00,78.2,68.8,29.69,NNW,346,2.0,6.0,73,0.00,,,0.00,Wunderground v.1.15,2013-06-28 16:39:00,
2013-06-28 12:44:00,77.9,67.3,29.69,NNW,333,3.0,6.0,70,0.00,,,0.00,Wunderground v.1.15,2013-06-28 16:44:00,
2013-06-28 12:49:00,77.7,67.1,29.69,NNW,348,3.0,6.0,70,0.00,,,0.00,Wunderground v.1.15,2013-06-28 16:49:00,
2013-06-28 12:59:00,77.4,66.4,29.68,North,355,4.0,6.0,69,0.00,,,0.00,Wunderground v.1.15,2013-06-28 16:59:00,
2013-06-28 13:05:00,77.3,67.6,29.68,North,351,4.0,8.0,72,0.00,,,0.00,Wunderground v.1.15,2013-06-28 17:05:00,
2013-06-28 13:14:00,77.3,64.6,29.69,NNW,344,5.0,7.0,65,0.00,,,0.00,Wunderground v.1.15,2013-06-28 17:14:00,
2013-06-28 13:19:00,77.2,65.0,29.69,NNW,347,5.0,5.0,66,0.00,,,0.00,Wunderground v.1.15,2013-06-28 17:19:00,
2013-06-28 13:24:00,77.2,65.8,29.69,North,350,5.0,8.0,68,0.00,,,0.00,Wunderground v.1.15,2013-06-28 17:24:00,
2013-06-28 13:29:00,77.1,66.6,29.69,North,355,5.0,8.0,70,0.00,,,0.00,Wunderground v.1.15,2013-06-28 17:29:00,
2013-06-28 13:39:00,76.9,65.5,29.68,NW,304,6.0,6.0,68,0.00,,,0.00,Wunderground v.1.15,2013-06-28 17:39:00,
2013-06-28 13:44:00,76.7,64.0,29.68,NNW,345,6.0,8.0,65,0.00,,,0.00,Wunderground v.1.15,2013-06-28 17:44:00,
2013-06-28 13:49:00,76.7,64.0,29.68,NE,51,5.0,5.0,65,0.00,,,0.00,Wunderground v.1.15,2013-06-28 17:49:00,
2013-06-28 13:59:00,77.0,64.8,29.69,North,355,5.0,8.0,66,0.00,,,0.00,Wunderground v.1.15,2013-06-28 17:59:00,
2013-06-28 14:04:00,77.1,65.3,29.68,North,360,4.0,15.0,67,0.00,,,0.00,Wunderground v.1.15,2013-06-28 18:04:00,
2013-06-28 14:14:00,77.2,65.4,29.67,North,350,3.0,6.0,67,0.00,,,0.00,Wunderground v.1.15,2013-06-28 18:14:00,
2013-06-28 14:19:00,77.3,65.9,29.67,NNE,24,2.0,2.0,68,0.00,,,0.00,Wunderground v.1.15,2013-06-28 18:19:00,
2013-06-28 14:29:00,77.6,69.8,29.67,North,350,1.0,15.0,77,0.00,,,0.00,Wunderground v.1.15,2013-06-28 18:29:00,
2013-06-28 14:34:00,78.3,69.3,29.66,North,350,2.0,15.0,74,0.00,,,0.00,Wunderground v.1.15,2013-06-28 18:34:00,
2013-06-28 14:44:00,79.2,69.4,29.66,North,350,2.0,7.0,72,0.00,,,0.00,Wunderground v.1.15,2013-06-28 18:44:00,
2013-06-28 14:49:00,79.9,69.2,29.65,North,355,3.0,3.0,70,0.00,,,0.00,Wunderground v.1.15,2013-06-28 18:49:00,
2013-06-28 14:59:00,80.7,71.2,29.64,North,350,3.0,3.0,73,0.00,,,0.00,Wunderground v.1.15,2013-06-28 18:59:00,
2013-06-28 15:04:00,80.8,69.7,29.64,North,350,2.0,8.0,69,0.00,,,0.00,Wunderground v.1.15,2013-06-28 19:04:00,
2013-06-28 15:14:00,80.5,70.2,29.63,North,360,1.0,8.0,71,0.00,,,0.00,Wunderground v.1.15,2013-06-28 19:14:00,
2013-06-28 15:19:00,80.8,69.2,29.63,North,350,2.0,2.0,68,0.00,,,0.00,Wunderground v.1.15,2013-06-28 19:19:00,
2013-06-28 15:25:00,80.9,68.5,29.62,North,5,3.0,8.0,66,0.00,,,0.00,Wunderground v.1.15,2013-06-28 19:25:00,
2013-06-28 15:34:00,80.7,69.2,29.62,North,355,5.0,8.0,68,0.00,,,0.00,Wunderground v.1.15,2013-06-28 19:34:00,
2013-06-28 15:39:00,81.1,71.2,29.62,NNW,348,4.0,4.0,72,0.00,,,0.00,Wunderground v.1.15,2013-06-28 19:39:00,
2013-06-28 15:49:00,82.4,72.5,29.61,North,351,2.0,2.0,72,0.00,,,0.00,Wunderground v.1.15,2013-06-28 19:49:00,
2013-06-28 15:59:00,83.2,72.0,29.60,North,355,1.0,8.0,69,0.00,,,0.00,Wunderground v.1.15,2013-06-28 19:59:00,
2013-06-28 16:04:00,83.4,71.7,29.61,NNW,348,3.0,13.0,68,0.00,,,0.00,Wunderground v.1.15,2013-06-28 20:04:00,
2013-06-28 16:14:00,82.8,70.7,29.60,North,349,2.0,13.0,67,0.00,,,0.00,Wunderground v.1.15,2013-06-28 20:14:00,
2013-06-28 16:19:00,82.4,71.2,29.60,North,349,1.0,1.0,69,0.00,,,0.00,Wunderground v.1.15,2013-06-28 20:19:00,
2013-06-28 16:24:00,82.1,72.2,29.60,North,355,1.0,2.0,72,0.00,,,0.00,Wunderground v.1.15,2013-06-28 20:24:00,
2013-06-28 16:34:00,81.9,72.8,29.60,NNW,347,2.0,2.0,74,0.00,,,0.00,Wunderground v.1.15,2013-06-28 20:34:00,
2013-06-28 16:44:00,82.7,71.9,29.59,North,351,2.0,13.0,70,0.00,,,0.00,Wunderground v.1.15,2013-06-28 20:44:00,
2013-06-28 16:54:00,82.0,71.2,29.59,North,355,0.0,13.0,70,0.00,,,0.00,Wunderground v.1.15,2013-06-28 20:54:00,
2013-06-28 16:59:00,81.3,71.0,29.59,North,355,0.0,13.0,71,0.00,,,0.00,Wunderground v.1.15,2013-06-28 20:59:00,
2013-06-28 17:04:00,80.6,70.7,29.60,North,355,0.0,13.0,72,0.00,,,0.00,Wunderground v.1.15,2013-06-28 21:04:00,
2013-06-28 17:14:00,79.7,70.7,29.59,NNE,28,0.0,8.0,74,0.00,,,0.00,Wunderground v.1.15,2013-06-28 21:14:00,
2013-06-28 17:19:00,79.3,71.1,29.59,NNW,346,0.0,8.0,76,0.00,,,0.00,Wunderground v.1.15,2013-06-28 21:19:00,
2013-06-28 17:24:00,78.7,70.1,29.59,NNW,346,1.0,8.0,75,0.00,,,0.00,Wunderground v.1.15,2013-06-28 21:24:00,
2013-06-28 17:29:00,78.4,71.0,29.59,North,355,1.0,1.0,78,0.00,,,0.00,Wunderground v.1.15,2013-06-28 21:29:00,
2013-06-28 17:39:00,77.4,69.2,29.59,North,355,0.0,8.0,76,0.00,,,0.00,Wunderground v.1.15,2013-06-28 21:39:00,
2013-06-28 17:49:00,76.5,69.5,29.58,North,360,0.0,8.0,79,0.00,,,0.00,Wunderground v.1.15,2013-06-28 21:49:00,
2013-06-28 17:54:00,76.0,69.0,29.58,North,360,0.0,8.0,79,0.00,,,0.00,Wunderground v.1.15,2013-06-28 21:54:00,
2013-06-28 18:04:00,75.5,69.6,29.58,North,360,0.0,8.0,82,0.00,,,0.00,Wunderground v.1.15,2013-06-28 22:04:00,
2013-06-28 18:14:00,74.9,69.4,29.58,North,360,0.0,7.0,83,0.00,,,0.00,Wunderground v.1.15,2013-06-28 22:14:00,
2013-06-28 18:24:00,74.3,68.8,29.58,North,360,0.0,7.0,83,0.00,,,0.00,Wunderground v.1.15,2013-06-28 22:24:00,
2013-06-28 18:29:00,73.9,68.4,29.59,North,360,0.0,7.0,83,0.00,,,0.00,Wunderground v.1.15,2013-06-28 22:29:00,
2013-06-28 18:39:00,73.1,67.6,29.59,North,5,2.0,7.0,83,0.00,,,0.00,Wunderground v.1.15,2013-06-28 22:39:00,
2013-06-28 18:49:00,72.2,67.8,29.60,North,360,3.0,3.0,86,0.00,,,0.00,Wunderground v.1.15,2013-06-28 22:49:00,
2013-06-28 18:59:00,71.3,67.9,29.60,NNW,347,3.0,3.0,89,0.00,,,0.01,Wunderground v.1.15,2013-06-28 22:59:00,
2013-06-28 19:04:00,70.6,67.5,29.60,North,10,2.0,9.0,90,0.00,,,0.01,Wunderground v.1.15,2013-06-28 23:04:00,
2013-06-28 19:14:00,69.8,67.4,29.61,North,10,2.0,9.0,92,0.00,,,0.01,Wunderground v.1.15,2013-06-28 23:14:00,
2013-06-28 19:19:00,69.5,67.1,29.61,North,5,1.0,9.0,92,0.00,,,0.01,Wunderground v.1.15,2013-06-28 23:19:00,
2013-06-28 19:29:00,69.1,67.0,29.61,North,9,1.0,9.0,93,0.00,,,0.01,Wunderground v.1.15,2013-06-28 23:29:00,
2013-06-28 19:39:00,68.7,66.9,29.62,North,5,2.0,9.0,94,0.00,,,0.01,Wunderground v.1.15,2013-06-28 23:39:00,
2013-06-28 19:44:00,68.4,66.6,29.62,North,360,3.0,9.0,94,0.00,,,0.01,Wunderground v.1.15,2013-06-28 23:44:00,
2013-06-28 19:59:00,67.7,65.9,29.64,North,355,5.0,9.0,94,0.00,,,0.02,Wunderground v.1.15,2013-06-28 23:59:00,
2013-06-28 20:04:00,67.4,65.9,29.63,NNW,344,4.0,10.0,95,0.17,,,0.04,Wunderground v.1.15,2013-06-29 00:04:00,
2013-06-28 20:14:00,67.1,65.9,29.63,NNW,344,0.0,10.0,96,0.04,,,0.04,Wunderground v.1.15,2013-06-29 00:14:00,
2013-06-28 20:24:00,66.8,65.6,29.63,NNW,344,1.0,10.0,96,0.00,,,0.04,Wunderground v.1.15,2013-06-29 00:24:00,
2013-06-28 20:34:00,66.8,65.9,29.62,NNW,344,1.0,10.0,97,0.00,,,0.04,Wunderground v.1.15,2013-06-29 00:34:00,
2013-06-28 20:39:00,66.7,65.5,29.63,NNW,344,1.0,1.0,96,0.00,,,0.04,Wunderground v.1.15,2013-06-29 00:39:00,
2013-06-28 20:44:00,66.6,65.7,29.62,NNW,344,0.0,10.0,97,0.00,,,0.04,Wunderground v.1.15,2013-06-29 00:44:00,
2013-06-28 20:54:00,66.3,65.4,29.61,NNW,344,0.0,10.0,97,0.00,,,0.04,Wunderground v.1.15,2013-06-29 00:54:00,
2013-06-28 21:04:00,66.2,65.3,29.62,NNW,344,0.0,10.0,97,0.00,,,0.04,Wunderground v.1.15,2013-06-29 01:04:00,
2013-06-28 21:14:00,66.0,65.1,29.61,NNW,344,0.0,5.0,97,0.00,,,0.04,Wunderground v.1.15,2013-06-29 01:14:00,
2013-06-28 21:19:00,65.9,65.0,29.61,NNW,344,0.0,5.0,97,0.00,,,0.04,Wunderground v.1.15,2013-06-29 01:19:00,
2013-06-28 21:24:00,65.8,64.6,29.61,NNW,344,0.0,5.0,96,0.00,,,0.04,Wunderground v.1.15,2013-06-29 01:24:00,
2013-06-28 21:34:00,65.7,64.5,29.61,NNW,344,0.0,5.0,96,0.00,,,0.04,Wunderground v.1.15,2013-06-29 01:34:00,
2013-06-28 21:44:00,65.5,64.3,29.61,NNW,344,0.0,5.0,96,0.00,,,0.04,Wunderground v.1.15,2013-06-29 01:44:00,
2013-06-28 21:49:00,65.4,63.9,29.61,NNW,344,0.0,5.0,95,0.00,,,0.04,Wunderground v.1.15,2013-06-29 01:49:00,
2013-06-28 21:54:00,65.3,63.8,29.61,NNW,344,0.0,5.0,95,0.00,,,0.04,Wunderground v.1.15,2013-06-29 01:54:00,
2013-06-28 22:04:00,65.2,63.7,29.61,NNW,344,0.0,5.0,95,0.00,,,0.04,Wunderground v.1.15,2013-06-29 02:04:00,
2013-06-28 22:14:00,65.3,63.5,29.62,NNW,344,0.0,4.0,94,0.00,,,0.04,Wunderground v.1.15,2013-06-29 02:14:00,
2013-06-28 22:24:00,65.4,63.6,29.62,NNW,344,0.0,4.0,94,0.00,,,0.04,Wunderground v.1.15,2013-06-29 02:24:00,
2013-06-28 22:29:00,65.3,63.5,29.62,NNW,344,0.0,4.0,94,0.00,,,0.04,Wunderground v.1.15,2013-06-29 02:29:00,
2013-06-28 22:34:00,65.2,63.4,29.62,NNW,344,0.0,4.0,94,0.00,,,0.04,Wunderground v.1.15,2013-06-29 02:34:00,
2013-06-28 22:44:00,65.2,63.1,29.63,NNW,344,0.0,4.0,93,0.00,,,0.04,Wunderground v.1.15,2013-06-29 02:44:00,
2013-06-28 22:54:00,65.4,63.3,29.63,NNW,344,0.0,4.0,93,0.00,,,0.04,Wunderground v.1.15,2013-06-29 02:54:00,
2013-06-28 22:59:00,65.5,63.1,29.63,NNW,344,0.0,4.0,92,0.00,,,0.04,Wunderground v.1.15,2013-06-29 02:59:00,
2013-06-28 23:04:00,65.5,63.1,29.63,NNW,344,0.0,4.0,92,0.00,,,0.04,Wunderground v.1.15,2013-06-29 03:04:00,
2013-06-28 23:14:00,65.8,63.1,29.63,NNW,344,0.0,1.0,91,0.00,,,0.04,Wunderground v.1.15,2013-06-29 03:14:00,
2013-06-28 23:19:00,65.9,63.2,29.63,NNW,344,0.0,1.0,91,0.00,,,0.04,Wunderground v.1.15,2013-06-29 03:19:00,
2013-06-28 23:24:00,66.1,63.1,29.64,NNW,344,0.0,1.0,90,0.00,,,0.04,Wunderground v.1.15,2013-06-29 03:24:00,
2013-06-28 23:34:00,66.3,63.3,29.64,NNW,344,0.0,1.0,90,0.00,,,0.04,Wunderground v.1.15,2013-06-29 03:34:00,
2013-06-28 23:44:00,66.4,63.4,29.64,NNW,344,0.0,1.0,90,0.00,,,0.04,Wunderground v.1.15,2013-06-29 03:44:00,
2013-06-28 23:54:00,66.5,63.5,29.64,NNW,344,0.0,1.0,90,0.00,,,0.04,Wunderground v.1.15,2013-06-29 03:54:00,